Worthington, MN

11:31 AM CDT on April 27, 2017 (GMT -0500)
Worthington Municipal

Weather History for KOTG - April, 2014

Change the Weather History Date:

Thursday, April 10, 2014

  Actual Average Record
Temperature  
Mean Temperature 50 °F -  
Max Temperature 60 °F 50 °F 86 °F (1977)
Min Temperature 39 °F 31 °F 9 °F (1989)
Degree Days  
Heating Degree Days 16    
Moisture  
Dew Point 28 °F    
Average Humidity 44    
Maximum Humidity 75    
Minimum Humidity 22    
Precipitation  
Precipitation 0.00 in - - ()
Sea Level Pressure  
Sea Level Pressure 29.88 in    
Wind  
Wind Speed 16 mph (NW)    
Max Wind Speed 25 mph    
Max Gust Speed 33 mph    
Visibility 10 miles    
Events      
Averages and records for this station are not official NWS values.
T = Trace of Precipitation, MM = Missing Value Source: NWS Daily Summary

Daily Weather History Graph

Daily Weather History Graph

Search for Another Location

Airport or City:

Trip Planner

Search our weather history database for the weather conditions in past years. The results will help you decide how hot, cold, wet, or windy it might be!

Date:

Astronomy

Apr. 10, 2014 Rise Set
Actual Time 6:48 AM CDT 7:59 PM CDT
Civil Twilight 6:18 AM CDT 8:29 PM CDT
Nautical Twilight 5:43 AM CDT 9:04 PM CDT
Astronomical Twilight 5:05 AM CDT 9:42 PM CDT
Moon 3:37 PM CDT (4/10) 4:19 AM CDT (4/10)
Length of Visible Light 14h 10m
Length of Day
13h 11m
Waxing Gibbous, 80% of the Moon is Illuminated
Apr 10
Waxing Gibbous
Apr 15
Full
Apr 22
Last Quarter
Apr 29
New
May 6
First Quarter

Hourly Weather History & Observations

Time (CDT) Temp. Windchill Dew Point Humidity Pressure Visibility Wind Dir Wind Speed Gust Speed Precip Events Conditions
12:15 AM 59.0 °F - 37.4 °F 45% 29.67 in 10.0 mi North 25.3 mph - N/A   Mostly Cloudy
12:35 AM 55.4 °F - 37.4 °F 51% 29.68 in 10.0 mi North 25.3 mph 33.4 mph N/A   Clear
12:55 AM 53.6 °F - 37.4 °F 54% 29.69 in 10.0 mi North 23.0 mph 29.9 mph N/A   Clear
1:15 AM 51.8 °F - 37.4 °F 58% 29.70 in 10.0 mi North 20.7 mph 25.3 mph N/A   Clear
1:35 AM 50.0 °F - 35.6 °F 58% 29.71 in 10.0 mi NNW 21.9 mph 26.5 mph N/A   Clear
1:55 AM 48.2 °F - 35.6 °F 62% 29.73 in 10.0 mi NNW 21.9 mph - N/A   Clear
2:15 AM 46.4 °F 39.8 °F 33.8 °F 62% 29.74 in 10.0 mi NNW 16.1 mph 24.2 mph N/A   Clear
2:35 AM 46.4 °F 39.5 °F 33.8 °F 62% 29.74 in 10.0 mi North 17.3 mph - N/A   Clear
2:55 AM 44.6 °F 38.4 °F 33.8 °F 66% 29.74 in 10.0 mi North 12.7 mph - N/A   Clear
3:15 AM 44.6 °F 38.8 °F 33.8 °F 66% 29.74 in 10.0 mi North 11.5 mph - N/A   Clear
3:35 AM 42.8 °F 37.0 °F 32.0 °F 66% 29.75 in 10.0 mi North 10.4 mph - N/A   Clear
3:55 AM 42.8 °F 37.5 °F 32.0 °F 66% 29.76 in 10.0 mi NNW 9.2 mph - N/A   Clear
4:15 AM 41.0 °F 35.8 °F 32.0 °F 70% 29.77 in 10.0 mi NNW 8.1 mph - N/A   Partly Cloudy
4:35 AM 41.0 °F 35.2 °F 32.0 °F 70% 29.77 in 10.0 mi NW 9.2 mph - N/A   Mostly Cloudy
4:55 AM 41.0 °F 37.1 °F 32.0 °F 70% 29.75 in 10.0 mi NNW 5.8 mph - N/A   Scattered Clouds
5:15 AM 39.2 °F 33.0 °F 30.2 °F 70% 29.76 in 10.0 mi NNW 9.2 mph - N/A   Partly Cloudy
5:35 AM 39.2 °F 33.6 °F 32.0 °F 75% 29.77 in 10.0 mi NNW 8.1 mph - N/A   Mostly Cloudy
5:55 AM 42.8 °F 39.3 °F 32.0 °F 66% 29.79 in 10.0 mi NW 5.8 mph - N/A   Mostly Cloudy
6:15 AM 42.8 °F 38.0 °F 32.0 °F 66% 29.81 in 10.0 mi NW 8.1 mph - N/A   Mostly Cloudy
6:55 AM 42.8 °F 37.5 °F 30.2 °F 61% 29.83 in 10.0 mi NW 9.2 mph - N/A   Partly Cloudy
7:15 AM 41.0 °F 36.4 °F 30.2 °F 65% 29.85 in 10.0 mi NW 6.9 mph - N/A   Clear
7:35 AM 41.0 °F 35.8 °F 28.4 °F 61% 29.85 in 10.0 mi NW 8.1 mph - N/A   Clear
7:55 AM 42.8 °F 37.5 °F 28.4 °F 57% 29.86 in 10.0 mi NW 9.2 mph - N/A   Clear
8:15 AM 42.8 °F 37.0 °F 28.4 °F 57% 29.87 in 10.0 mi NW 10.4 mph - N/A   Clear
8:35 AM 44.6 °F 39.2 °F 28.4 °F 53% 29.89 in 10.0 mi NW 10.4 mph - N/A   Clear
8:55 AM 46.4 °F 40.4 °F 26.6 °F 46% 29.89 in 10.0 mi NW 13.8 mph - N/A   Clear
9:15 AM 46.4 °F 40.4 °F 26.6 °F 46% 29.89 in 10.0 mi NW 13.8 mph - N/A   Clear
9:35 AM 50.0 °F - 26.6 °F 40% 29.89 in 10.0 mi NW 16.1 mph 20.7 mph N/A   Clear
9:55 AM 51.8 °F - 26.6 °F 38% 29.90 in 10.0 mi NW 17.3 mph 21.9 mph N/A   Clear
10:15 AM 51.8 °F - 24.8 °F 35% 29.91 in 10.0 mi NW 15.0 mph - N/A   Clear
10:35 AM 53.6 °F - 24.8 °F 33% 29.91 in 10.0 mi NW 17.3 mph 21.9 mph N/A   Clear
10:55 AM 55.4 °F - 24.8 °F 31% 29.92 in 10.0 mi NW 18.4 mph 25.3 mph N/A   Clear
11:15 AM 55.4 °F - 24.8 °F 31% 29.93 in 10.0 mi NW 16.1 mph 26.5 mph N/A   Clear
11:35 AM 57.2 °F - 24.8 °F 29% 29.93 in 10.0 mi NW 20.7 mph 27.6 mph N/A   Clear
11:55 AM 57.2 °F - 23.0 °F 27% 29.93 in 10.0 mi NW 18.4 mph 24.2 mph N/A   Clear
12:15 PM 55.4 °F - 23.0 °F 29% 29.93 in 10.0 mi WNW 17.3 mph 24.2 mph N/A   Clear
12:35 PM 57.2 °F - 24.8 °F 29% 29.92 in 10.0 mi NW 21.9 mph 26.5 mph N/A   Clear
12:55 PM 57.2 °F - 23.0 °F 27% 29.92 in 10.0 mi NW 25.3 mph 32.2 mph N/A   Clear
1:15 PM 59.0 °F - 23.0 °F 25% 29.92 in 10.0 mi WNW 24.2 mph 31.1 mph N/A   Clear
1:35 PM 59.0 °F - 24.8 °F 27% 29.92 in 10.0 mi WNW 24.2 mph 27.6 mph N/A   Clear
1:55 PM 60.8 °F - 24.8 °F 25% 29.92 in 10.0 mi WNW 25.3 mph 31.1 mph N/A   Clear
2:15 PM 60.8 °F - 24.8 °F 25% 29.92 in 10.0 mi WNW 24.2 mph 31.1 mph N/A   Clear
2:35 PM 60.8 °F - 23.0 °F 23% 29.92 in 10.0 mi WNW 23.0 mph - N/A   Clear
2:55 PM 60.8 °F - 23.0 °F 23% 29.92 in 10.0 mi WNW 21.9 mph 31.1 mph N/A   Clear
3:15 PM 60.8 °F - 21.2 °F 22% 29.92 in 10.0 mi NW 21.9 mph 29.9 mph N/A   Clear
3:35 PM 60.8 °F - 23.0 °F 23% 29.92 in 10.0 mi NW 19.6 mph 31.1 mph N/A   Clear
3:55 PM 60.8 °F - 23.0 °F 23% 29.92 in 10.0 mi WNW 21.9 mph 26.5 mph N/A   Clear
4:15 PM 60.8 °F - 23.0 °F 23% 29.91 in 10.0 mi NNW 18.4 mph 24.2 mph N/A   Clear
4:35 PM 60.8 °F - 21.2 °F 22% 29.92 in 10.0 mi WNW 17.3 mph 24.2 mph N/A   Clear
4:55 PM 60.8 °F - 21.2 °F 22% 29.92 in 10.0 mi NW 12.7 mph 31.1 mph N/A   Clear
5:15 PM 60.8 °F - 21.2 °F 22% 29.92 in 10.0 mi NW 20.7 mph 28.8 mph N/A   Clear
5:35 PM 60.8 °F - 23.0 °F 23% 29.93 in 10.0 mi NW 17.3 mph 21.9 mph N/A   Clear
5:55 PM 59.0 °F - 21.2 °F 23% 29.93 in 10.0 mi NW 17.3 mph 24.2 mph N/A   Clear
6:15 PM 57.2 °F - 21.2 °F 25% 29.93 in 10.0 mi NW 12.7 mph - N/A   Clear
6:35 PM 57.2 °F - 23.0 °F 27% 29.94 in 10.0 mi NW 13.8 mph - N/A   Clear
6:55 PM 57.2 °F - 23.0 °F 27% 29.94 in 10.0 mi NW 11.5 mph - N/A   Clear
7:15 PM 55.4 °F - 26.6 °F 33% 29.94 in 10.0 mi NW 8.1 mph - N/A   Clear
7:35 PM 51.8 °F - 26.6 °F 38% 29.95 in 10.0 mi WNW 6.9 mph - N/A   Clear
7:55 PM 51.8 °F - 28.4 °F 41% 29.95 in 10.0 mi West 6.9 mph - N/A   Clear
8:15 PM 50.0 °F - 26.6 °F 40% 29.96 in 10.0 mi West 8.1 mph - N/A   Clear
8:35 PM 48.2 °F - 28.4 °F 46% 29.97 in 10.0 mi West 5.8 mph - N/A   Clear
8:55 PM 48.2 °F - 26.6 °F 43% 29.97 in 10.0 mi Calm Calm - N/A   Clear
9:15 PM 48.2 °F - 26.6 °F 43% 29.98 in 10.0 mi Calm Calm - N/A   Clear
9:35 PM 48.2 °F - 26.6 °F 43% 29.98 in 10.0 mi Calm Calm - N/A   Clear
9:55 PM 46.4 °F - 28.4 °F 50% 29.99 in 10.0 mi Calm Calm - N/A   Clear
10:15 PM 44.6 °F - 28.4 °F 53% 29.99 in 10.0 mi Calm Calm - N/A   Clear
10:35 PM 46.4 °F - 26.6 °F 46% 29.98 in 10.0 mi Calm Calm - N/A   Clear
10:55 PM 44.6 °F 42.2 °F 26.6 °F 49% 29.97 in 10.0 mi South 4.6 mph - N/A   Clear
11:15 PM 46.4 °F 42.9 °F 28.4 °F 50% 29.97 in 10.0 mi South 6.9 mph - N/A   Clear
11:35 PM 46.4 °F 42.9 °F 26.6 °F 46% 29.97 in 10.0 mi South 6.9 mph - N/A   Clear
11:55 PM 46.4 °F 42.4 °F 26.6 °F 46% 29.96 in 10.0 mi South 8.1 mph - N/A   Clear